Time,TemperatureF,DewpointF,PressureIn,WindDirection,WindDirectionDegrees,WindSpeedMPH,WindSpeedGustMPH,Humidity,HourlyPrecipIn,Conditions,Clouds,dailyrainin,SolarRadiationWatts/m^2,SoftwareType,DateUTC
2013-05-19 00:02:00,55.0,55.0,-100.00,North,4,5.0,11.0,99,0.10,,,0.28,0.000000,,2013-05-19 06:02:00,
2013-05-19 00:12:00,55.0,55.0,-100.00,North,4,5.0,11.0,99,0.10,,,0.28,0.000000,,2013-05-19 06:12:00,
2013-05-19 00:21:00,55.0,55.0,-100.00,North,4,5.0,11.0,99,0.10,,,0.28,0.000000,,2013-05-19 06:21:00,
2013-05-19 00:42:00,57.0,57.0,-100.00,NNE,33,3.0,9.0,99,0.25,,,-99.99,0.000000,,2013-05-19 06:42:00,
2013-05-19 00:52:00,57.0,57.0,-100.00,NNE,33,3.0,9.0,99,0.25,,,-99.99,0.000000,,2013-05-19 06:52:00,
2013-05-19 01:01:00,57.0,57.0,-100.00,NNE,33,3.0,9.0,99,0.25,,,-99.99,0.000000,,2013-05-19 07:01:00,
2013-05-19 01:11:00,57.0,57.0,-100.00,NNE,33,3.0,9.0,99,0.25,,,-99.99,0.000000,,2013-05-19 07:11:00,
2013-05-19 01:21:00,57.0,57.0,-100.00,NNE,33,3.0,9.0,99,0.25,,,-99.99,0.000000,,2013-05-19 07:21:00,
2013-05-19 01:42:00,55.0,55.0,-100.00,ENE,74,3.0,7.0,99,0.04,,,0.57,0.000000,,2013-05-19 07:42:00,
2013-05-19 01:52:00,55.0,55.0,-100.00,ENE,74,3.0,7.0,99,0.04,,,0.57,0.000000,,2013-05-19 07:52:00,
2013-05-19 02:02:00,55.0,55.0,-100.00,ENE,74,3.0,7.0,99,0.04,,,0.57,0.000000,,2013-05-19 08:02:00,
2013-05-19 02:12:00,55.0,55.0,-100.00,ENE,74,3.0,7.0,99,0.04,,,0.57,0.000000,,2013-05-19 08:12:00,
2013-05-19 02:22:00,55.0,55.0,-100.00,ENE,74,3.0,7.0,99,0.04,,,0.57,0.000000,,2013-05-19 08:22:00,
2013-05-19 02:52:00,57.0,57.0,-100.00,North,5,3.0,6.0,99,0.01,,,0.58,0.000000,,2013-05-19 08:52:00,
2013-05-19 03:02:00,57.0,57.0,-100.00,North,5,3.0,6.0,99,0.01,,,0.58,0.000000,,2013-05-19 09:02:00,
2013-05-19 03:12:00,57.0,57.0,-100.00,North,5,3.0,6.0,99,0.01,,,0.58,0.000000,,2013-05-19 09:12:00,
2013-05-19 03:21:00,57.0,57.0,-100.00,North,5,3.0,6.0,99,0.01,,,0.58,0.000000,,2013-05-19 09:21:00,
2013-05-19 03:53:00,57.0,57.0,-100.00,NNE,24,5.0,11.0,99,0.00,,,0.58,0.000000,,2013-05-19 09:53:00,
2013-05-19 04:02:00,57.0,57.0,-100.00,NNE,24,5.0,11.0,99,0.00,,,0.58,0.000000,,2013-05-19 10:02:00,
2013-05-19 04:12:00,57.0,57.0,-100.00,NNE,24,5.0,11.0,99,0.00,,,0.58,0.000000,,2013-05-19 10:12:00,
2013-05-19 04:23:00,57.0,57.0,-100.00,NNE,24,5.0,11.0,99,0.00,,,0.58,0.000000,,2013-05-19 10:23:00,
2013-05-19 04:42:00,55.0,55.0,-100.00,NNE,19,5.0,10.0,99,0.00,,,0.58,0.000000,,2013-05-19 10:42:00,
2013-05-19 04:53:00,55.0,55.0,-100.00,NNE,19,5.0,10.0,99,0.00,,,0.58,0.000000,,2013-05-19 10:53:00,
2013-05-19 05:02:00,55.0,55.0,-100.00,NNE,19,5.0,10.0,99,0.00,,,0.58,0.000000,,2013-05-19 11:02:00,
2013-05-19 05:12:00,55.0,55.0,-100.00,NNE,19,5.0,10.0,99,0.00,,,0.58,0.000000,,2013-05-19 11:12:00,
2013-05-19 05:21:00,55.0,55.0,-100.00,NNE,19,5.0,10.0,99,0.00,,,0.58,0.000000,,2013-05-19 11:21:00,
2013-05-19 05:52:00,54.0,54.0,-100.00,NNE,26,10.0,17.0,99,0.00,,,0.58,0.000000,,2013-05-19 11:52:00,
2013-05-19 06:01:00,54.0,54.0,-100.00,NNE,26,10.0,17.0,99,0.00,,,0.58,0.000000,,2013-05-19 12:01:00,
2013-05-19 06:11:00,54.0,54.0,-100.00,NNE,26,10.0,17.0,99,0.00,,,0.58,0.000000,,2013-05-19 12:11:00,
2013-05-19 06:22:00,54.0,54.0,-100.00,NNE,26,10.0,17.0,99,0.00,,,0.58,0.000000,,2013-05-19 12:22:00,
2013-05-19 06:52:00,53.0,53.0,-100.00,NNE,32,8.0,17.0,99,0.00,,,-99.99,1.000000,,2013-05-19 12:52:00,
2013-05-19 07:01:00,53.0,53.0,-100.00,NNE,32,8.0,17.0,99,0.00,,,-99.99,1.000000,,2013-05-19 13:01:00,
2013-05-19 07:11:00,53.0,53.0,-100.00,NNE,32,8.0,17.0,99,0.00,,,-99.99,1.000000,,2013-05-19 13:11:00,
2013-05-19 07:21:00,53.0,53.0,-100.00,NNE,32,8.0,17.0,99,0.00,,,-99.99,1.000000,,2013-05-19 13:21:00,
2013-05-19 07:42:00,54.0,54.0,-100.00,NE,43,8.0,20.0,99,0.01,,,0.59,12.000000,,2013-05-19 13:42:00,
2013-05-19 07:52:00,54.0,54.0,-100.00,NE,43,8.0,20.0,99,0.01,,,0.59,12.000000,,2013-05-19 13:52:00,
2013-05-19 08:02:00,54.0,54.0,-100.00,NE,43,8.0,20.0,99,0.01,,,0.59,12.000000,,2013-05-19 14:02:00,
2013-05-19 08:11:00,54.0,54.0,-100.00,NE,43,8.0,20.0,99,0.01,,,0.59,12.000000,,2013-05-19 14:11:00,
2013-05-19 08:21:00,54.0,54.0,-100.00,NE,43,8.0,20.0,99,0.01,,,0.59,12.000000,,2013-05-19 14:21:00,
2013-05-19 08:52:00,54.0,54.0,-100.00,NE,35,10.0,18.0,99,0.00,,,0.59,25.000000,,2013-05-19 14:52:00,
2013-05-19 09:01:00,54.0,54.0,-100.00,NE,35,10.0,18.0,99,0.00,,,0.59,25.000000,,2013-05-19 15:01:00,
2013-05-19 09:11:00,54.0,54.0,-100.00,NE,35,10.0,18.0,99,0.00,,,0.59,25.000000,,2013-05-19 15:11:00,
2013-05-19 09:22:00,54.0,54.0,-100.00,NE,35,10.0,18.0,99,0.00,,,0.59,25.000000,,2013-05-19 15:22:00,
2013-05-19 10:42:00,54.0,53.0,-100.00,NE,35,12.0,23.0,98,-99.99,,,0.59,64.000000,,2013-05-19 16:42:00,
2013-05-19 10:52:00,54.0,53.0,-100.00,NE,35,12.0,23.0,98,-99.99,,,0.59,64.000000,,2013-05-19 16:52:00,
2013-05-19 11:02:00,54.0,53.0,-100.00,NE,35,12.0,23.0,98,-99.99,,,0.59,64.000000,,2013-05-19 17:02:00,
2013-05-19 11:12:00,54.0,53.0,-100.00,NE,35,12.0,23.0,98,-99.99,,,0.59,64.000000,,2013-05-19 17:12:00,
2013-05-19 11:22:00,54.0,53.0,-100.00,NE,35,12.0,23.0,98,-99.99,,,0.59,64.000000,,2013-05-19 17:22:00,
2013-05-19 11:52:00,53.0,50.0,-100.00,NNE,30,11.0,23.0,90,0.00,,,0.59,92.000000,,2013-05-19 17:52:00,
2013-05-19 12:02:00,53.0,50.0,-100.00,NNE,30,11.0,23.0,90,0.00,,,0.59,92.000000,,2013-05-19 18:02:00,
2013-05-19 12:12:00,53.0,50.0,-100.00,NNE,30,11.0,23.0,90,0.00,,,0.59,92.000000,,2013-05-19 18:12:00,
2013-05-19 12:22:00,53.0,50.0,-100.00,NNE,30,11.0,23.0,90,0.00,,,0.59,92.000000,,2013-05-19 18:22:00,
2013-05-19 12:53:00,56.0,51.0,-100.00,NNE,26,0.0,20.0,83,0.00,,,0.59,145.000000,,2013-05-19 18:53:00,
2013-05-19 13:01:00,56.0,51.0,-100.00,NNE,26,0.0,20.0,83,0.00,,,0.59,145.000000,,2013-05-19 19:01:00,
2013-05-19 13:11:00,56.0,51.0,-100.00,NNE,26,0.0,20.0,83,0.00,,,0.59,145.000000,,2013-05-19 19:11:00,
2013-05-19 13:22:00,56.0,51.0,-100.00,NNE,26,0.0,20.0,83,0.00,,,0.59,145.000000,,2013-05-19 19:22:00,
2013-05-19 13:52:00,57.0,51.0,-100.00,NNE,17,0.0,0.0,81,0.00,,,0.59,307.000000,,2013-05-19 19:52:00,
2013-05-19 14:02:00,57.0,51.0,-100.00,NNE,17,0.0,0.0,81,0.00,,,0.59,307.000000,,2013-05-19 20:02:00,
2013-05-19 14:11:00,57.0,51.0,-100.00,NNE,17,0.0,0.0,81,0.00,,,0.59,307.000000,,2013-05-19 20:11:00,
2013-05-19 14:21:00,57.0,51.0,-100.00,NNE,17,0.0,0.0,81,0.00,,,0.59,307.000000,,2013-05-19 20:21:00,
2013-05-19 14:52:00,57.0,51.0,-100.00,NNE,15,0.0,0.0,80,0.00,,,0.59,202.000000,,2013-05-19 20:52:00,
2013-05-19 15:02:00,57.0,51.0,-100.00,NNE,15,0.0,0.0,80,0.00,,,0.59,202.000000,,2013-05-19 21:02:00,
2013-05-19 15:11:00,57.0,51.0,-100.00,NNE,15,0.0,0.0,80,0.00,,,0.59,202.000000,,2013-05-19 21:11:00,
2013-05-19 15:22:00,57.0,51.0,-100.00,NNE,15,0.0,0.0,80,0.00,,,0.59,202.000000,,2013-05-19 21:22:00,
2013-05-19 15:53:00,57.0,51.0,-100.00,NNE,16,0.0,0.0,80,0.00,,,0.59,234.000000,,2013-05-19 21:53:00,
2013-05-19 16:03:00,57.0,51.0,-100.00,NNE,16,0.0,0.0,80,0.00,,,0.59,234.000000,,2013-05-19 22:03:00,
2013-05-19 16:12:00,57.0,51.0,-100.00,NNE,16,0.0,0.0,80,0.00,,,0.59,234.000000,,2013-05-19 22:12:00,
2013-05-19 16:23:00,57.0,51.0,-100.00,NNE,16,0.0,0.0,80,0.00,,,0.59,234.000000,,2013-05-19 22:23:00,
2013-05-19 16:53:00,53.0,49.0,-100.00,North,6,0.0,0.0,85,0.00,,,0.59,180.000000,,2013-05-19 22:53:00,
2013-05-19 17:02:00,53.0,49.0,-100.00,North,6,0.0,0.0,85,0.00,,,0.59,180.000000,,2013-05-19 23:02:00,
2013-05-19 17:12:00,53.0,49.0,-100.00,North,6,0.0,0.0,85,0.00,,,0.59,180.000000,,2013-05-19 23:12:00,
2013-05-19 17:22:00,53.0,49.0,-100.00,North,6,0.0,0.0,85,0.00,,,0.59,180.000000,,2013-05-19 23:22:00,
2013-05-19 17:52:00,53.0,52.0,-100.00,NNE,12,0.0,0.0,95,0.01,,,0.60,82.000000,,2013-05-19 23:52:00,
2013-05-19 18:02:00,53.0,52.0,-100.00,NNE,12,0.0,0.0,95,0.01,,,0.60,82.000000,,2013-05-20 00:02:00,
2013-05-19 18:11:00,53.0,52.0,-100.00,NNE,12,0.0,0.0,95,0.01,,,0.60,82.000000,,2013-05-20 00:11:00,
2013-05-19 18:22:00,53.0,52.0,-100.00,NNE,12,0.0,0.0,95,0.01,,,0.60,82.000000,,2013-05-20 00:22:00,
2013-05-19 18:42:00,52.0,51.0,-100.00,North,358,0.0,0.0,98,0.02,,,0.61,56.000000,,2013-05-20 00:42:00,
2013-05-19 18:52:00,52.0,51.0,-100.00,North,358,0.0,0.0,98,0.02,,,0.61,56.000000,,2013-05-20 00:52:00,
2013-05-19 19:01:00,52.0,51.0,-100.00,North,358,0.0,0.0,98,0.02,,,0.61,56.000000,,2013-05-20 01:01:00,
2013-05-19 19:11:00,52.0,51.0,-100.00,North,358,0.0,0.0,98,0.02,,,0.61,56.000000,,2013-05-20 01:11:00,
2013-05-19 19:21:00,52.0,51.0,-100.00,North,358,0.0,0.0,98,0.02,,,0.61,56.000000,,2013-05-20 01:21:00,
2013-05-19 19:52:00,50.0,50.0,-100.00,North,2,0.0,0.0,99,0.08,,,0.69,15.000000,,2013-05-20 01:52:00,
2013-05-19 20:02:00,50.0,50.0,-100.00,North,2,0.0,0.0,99,0.08,,,0.69,15.000000,,2013-05-20 02:02:00,
2013-05-19 20:11:00,50.0,50.0,-100.00,North,2,0.0,0.0,99,0.08,,,0.69,15.000000,,2013-05-20 02:11:00,
2013-05-19 20:21:00,50.0,50.0,-100.00,North,2,0.0,0.0,99,0.08,,,0.69,15.000000,,2013-05-20 02:21:00,
2013-05-19 20:52:00,51.0,51.0,-100.00,North,357,0.0,0.0,99,0.12,,,-99.99,4.000000,,2013-05-20 02:52:00,
2013-05-19 21:01:00,51.0,51.0,-100.00,North,357,0.0,0.0,99,0.12,,,-99.99,4.000000,,2013-05-20 03:01:00,
2013-05-19 21:11:00,51.0,51.0,-100.00,North,357,0.0,0.0,99,0.12,,,-99.99,4.000000,,2013-05-20 03:11:00,
2013-05-19 21:21:00,51.0,51.0,-100.00,North,357,0.0,0.0,99,0.12,,,-99.99,4.000000,,2013-05-20 03:21:00,
2013-05-19 21:52:00,49.0,49.0,-100.00,North,9,0.0,0.0,99,0.12,,,0.82,0.000000,,2013-05-20 03:52:00,
2013-05-19 22:03:00,49.0,49.0,-100.00,North,9,0.0,0.0,99,0.12,,,0.82,0.000000,,2013-05-20 04:03:00,
2013-05-19 22:13:00,49.0,49.0,-100.00,North,9,0.0,0.0,99,0.12,,,0.82,0.000000,,2013-05-20 04:13:00,
2013-05-19 22:23:00,49.0,49.0,-100.00,North,9,0.0,0.0,99,0.12,,,0.82,0.000000,,2013-05-20 04:23:00,
2013-05-19 22:53:00,50.0,50.0,-100.00,North,2,0.0,0.0,99,0.09,,,0.85,0.000000,,2013-05-20 04:53:00,
2013-05-19 23:02:00,50.0,50.0,-100.00,North,2,0.0,0.0,99,0.09,,,0.85,0.000000,,2013-05-20 05:02:00,
2013-05-19 23:12:00,50.0,50.0,-100.00,North,2,0.0,0.0,99,0.09,,,0.85,0.000000,,2013-05-20 05:12:00,
2013-05-19 23:21:00,50.0,50.0,-100.00,North,2,0.0,0.0,99,0.09,,,0.85,0.000000,,2013-05-20 05:21:00,
2013-05-19 23:52:00,50.0,50.0,-100.00,North,1,0.0,0.0,99,0.08,,,0.83,0.000000,,2013-05-20 05:52:00,